Weather History for Puyallup, WA

Change the Weather History Date:

Monday, February 18, 2013

  Actual Average (KTCM) Record (KTCM)
Temperature  
Mean Temperature 40 °F -  
Max Temperature 46 °F 48 °F 64 °F (1958)
Min Temperature 35 °F 30 °F 16 °F (1993)
Degree Days  
Heating Degree Days 24    
Moisture  
Dew Point 35 °F    
Average Humidity 83    
Maximum Humidity 100    
Minimum Humidity 57    
Precipitation  
Precipitation 0.00 in - - ()
Sea Level Pressure  
Sea Level Pressure 29.92 in    
Wind  
Wind Speed 1 mph (WSW)    
Max Wind Speed 7 mph    
Max Gust Speed -    
Visibility 10 miles    
Events      
Averages and records for this station are not official NWS values.
T = Trace of Precipitation, MM = Missing Value Source: NWS Daily Summary

Daily Weather History Graph

Daily Weather History Graph

Search for Another Location

Airport:

Trip Planner

Search our weather history database for the weather conditions in past years. The results will help you decide how hot, cold, wet, or windy it might be!

Date:

Astronomy

Feb. 18, 2013 Rise Set
Actual Time 7:08 AM PST 5:38 PM PST
Civil Twilight 6:37 AM PST 6:09 PM PST
Nautical Twilight 6:01 AM PST 6:45 PM PST
Astronomical Twilight 5:26 AM PST 7:20 PM PST
Moon 11:16 AM PST (2/18) 2:03 AM PST (2/18)
Length of Visible Light 11h 32m
Length of Day
10h 30m
First Quarter, 59% of the Moon is Illuminated
Feb 18
First Quarter
Feb 25
Full
Mar 4
Last Quarter
Mar 11
New
Mar 19
First Quarter

Hourly Weather History & Observations

Time (PST) Temp. Windchill Dew Point Humidity Pressure Visibility Wind Dir Wind Speed Gust Speed Precip Events Conditions
12:35 AM 39.2 °F - 37.4 °F 93% 30.10 in 10.0 mi Calm Calm - N/A   Overcast
12:55 AM 37.4 °F - 37.4 °F 100% 30.09 in 10.0 mi Calm Calm - N/A   Overcast
1:15 AM 37.4 °F - 37.4 °F 100% 30.08 in 10.0 mi Calm Calm - N/A   Scattered Clouds
1:35 AM 37.4 °F - 37.4 °F 100% 30.07 in 10.0 mi Calm Calm - N/A   Clear
1:55 AM 35.6 °F - 35.6 °F 100% 30.07 in 10.0 mi Calm Calm - N/A   Clear
2:15 AM 35.6 °F - 35.6 °F 100% 30.06 in 10.0 mi Calm Calm - N/A   Clear
2:35 AM 35.6 °F - 35.6 °F 100% 30.06 in 10.0 mi Calm Calm - N/A   Clear
2:55 AM 35.6 °F - 35.6 °F 100% 30.05 in 10.0 mi Calm Calm - N/A   Mostly Cloudy
3:15 AM 35.6 °F - 35.6 °F 100% 30.05 in 10.0 mi Calm Calm - N/A   Partly Cloudy
3:35 AM 35.6 °F - 35.6 °F 100% 30.04 in 10.0 mi Calm Calm - N/A   Partly Cloudy
3:55 AM 35.6 °F - 35.6 °F 100% 30.03 in 10.0 mi Calm Calm - N/A   Scattered Clouds
4:15 AM 35.6 °F - 35.6 °F 100% 30.03 in 10.0 mi Calm Calm - N/A   Scattered Clouds
4:35 AM 35.6 °F - 35.6 °F 100% 30.02 in 10.0 mi Calm Calm - N/A   Scattered Clouds
4:55 AM 35.6 °F - 35.6 °F 100% 30.01 in 10.0 mi Calm Calm - N/A   Scattered Clouds
5:15 AM 35.6 °F - 35.6 °F 100% 30.01 in 10.0 mi Calm Calm - N/A   Scattered Clouds
5:35 AM 35.6 °F - 35.6 °F 100% 30.00 in 10.0 mi Calm Calm - N/A   Mostly Cloudy
5:55 AM 35.6 °F - 35.6 °F 100% 30.00 in 10.0 mi Calm Calm - N/A   Overcast
6:15 AM 35.6 °F - 35.6 °F 100% 30.00 in 10.0 mi Calm Calm - N/A   Overcast
6:35 AM 35.6 °F - 35.6 °F 100% 30.00 in 10.0 mi Calm Calm - N/A   Overcast
6:55 AM 35.6 °F - 35.6 °F 100% 30.00 in 10.0 mi Calm Calm - N/A   Overcast
7:15 AM 35.6 °F - 35.6 °F 100% 29.99 in 10.0 mi Calm Calm - N/A   Mostly Cloudy
7:35 AM 35.6 °F - 35.6 °F 100% 30.00 in 10.0 mi Calm Calm - N/A   Mostly Cloudy
7:55 AM 35.6 °F - 35.6 °F 100% 30.00 in 10.0 mi Calm Calm - N/A   Mostly Cloudy
8:15 AM 35.6 °F - 35.6 °F 100% 29.99 in 10.0 mi Calm Calm - N/A   Mostly Cloudy
8:35 AM 37.4 °F - 37.4 °F 100% 29.99 in 10.0 mi Calm Calm - N/A   Mostly Cloudy
8:55 AM 37.4 °F - 35.6 °F 93% 29.99 in 10.0 mi Calm Calm - N/A   Scattered Clouds
9:15 AM 39.2 °F - 35.6 °F 87% 29.98 in 10.0 mi Calm Calm - N/A   Scattered Clouds
9:35 AM 39.2 °F - 35.6 °F 87% 29.97 in 10.0 mi Calm Calm - N/A   Mostly Cloudy
9:55 AM 39.2 °F - 35.6 °F 87% 29.97 in 10.0 mi Calm Calm - N/A   Partly Cloudy
10:15 AM 41.0 °F - 35.6 °F 81% 29.97 in 10.0 mi Calm Calm - N/A   Clear
10:35 AM 41.0 °F - 33.8 °F 76% 29.96 in 10.0 mi Calm Calm - N/A   Partly Cloudy
10:55 AM 42.8 °F - 35.6 °F 76% 29.96 in 10.0 mi Calm Calm - N/A   Clear
11:15 AM 42.8 °F - 33.8 °F 70% 29.96 in 10.0 mi Calm Calm - N/A   Clear
11:35 AM 44.6 °F 43.1 °F 33.8 °F 66% 29.95 in 10.0 mi West 3.5 mph - N/A   Partly Cloudy
11:55 AM 44.6 °F - 32.0 °F 61% 29.94 in 10.0 mi Calm Calm - N/A   Scattered Clouds
12:15 PM 44.6 °F - 32.0 °F 61% 29.94 in 10.0 mi Calm Calm - N/A   Partly Cloudy
12:35 PM 44.6 °F 42.2 °F 32.0 °F 61% 29.93 in 10.0 mi SW 4.6 mph - N/A   Scattered Clouds
12:55 PM 44.6 °F 40.7 °F 33.8 °F 66% 29.93 in 10.0 mi West 6.9 mph - N/A   Partly Cloudy
1:15 PM 44.6 °F 40.7 °F 35.6 °F 71% 29.92 in 10.0 mi WSW 6.9 mph - N/A   Clear
1:35 PM 44.6 °F 43.1 °F 35.6 °F 71% 29.91 in 10.0 mi WSW 3.5 mph - N/A   Scattered Clouds
1:55 PM 44.6 °F 42.2 °F 35.6 °F 71% 29.91 in 10.0 mi SW 4.6 mph - N/A   Scattered Clouds
2:15 PM 46.4 °F 43.5 °F 35.6 °F 66% 29.90 in 10.0 mi SSW 5.8 mph - N/A   Partly Cloudy
2:35 PM 44.6 °F 40.7 °F 33.8 °F 66% 29.89 in 10.0 mi West 6.9 mph - N/A   Scattered Clouds
2:55 PM 44.6 °F 40.7 °F 32.0 °F 61% 29.89 in 10.0 mi WSW 6.9 mph - N/A   Partly Cloudy
3:15 PM 46.4 °F 44.3 °F 32.0 °F 57% 29.89 in 10.0 mi SW 4.6 mph - N/A   Partly Cloudy
3:35 PM 44.6 °F - 32.0 °F 61% 29.88 in 10.0 mi Calm Calm - N/A   Mostly Cloudy
3:55 PM 44.6 °F 43.1 °F 32.0 °F 61% 29.87 in 10.0 mi SW 3.5 mph - N/A   Mostly Cloudy
4:15 PM 44.6 °F - 32.0 °F 61% 29.86 in 10.0 mi Calm Calm - N/A   Partly Cloudy
4:35 PM 44.6 °F 42.2 °F 32.0 °F 61% 29.85 in 10.0 mi SW 4.6 mph - N/A   Clear
4:55 PM 44.6 °F - 32.0 °F 61% 29.85 in 10.0 mi Calm Calm - N/A   Clear
5:15 PM 44.6 °F 43.1 °F 32.0 °F 61% 29.84 in 10.0 mi SSW 3.5 mph - N/A   Clear
5:35 PM 44.6 °F - 32.0 °F 61% 29.83 in 10.0 mi Calm Calm - N/A   Partly Cloudy
5:55 PM 44.6 °F - 32.0 °F 61% 29.83 in 10.0 mi Calm Calm - N/A   Scattered Clouds
6:15 PM 44.6 °F - 32.0 °F 61% 29.82 in 10.0 mi Calm Calm - N/A   Partly Cloudy
6:35 PM 42.8 °F - 32.0 °F 66% 29.82 in 10.0 mi Calm Calm - N/A   Mostly Cloudy
6:55 PM 41.0 °F - 32.0 °F 70% 29.81 in 10.0 mi Calm Calm - N/A   Mostly Cloudy
7:15 PM 41.0 °F - 32.0 °F 70% 29.81 in 10.0 mi Calm Calm - N/A   Mostly Cloudy
7:55 PM 41.0 °F - 32.0 °F 70% 29.79 in 10.0 mi Calm Calm - N/A   Overcast
8:15 PM 39.2 °F - 33.8 °F 81% 29.79 in 10.0 mi Calm Calm - N/A   Mostly Cloudy
8:35 PM 37.4 °F - 33.8 °F 87% 29.78 in 10.0 mi Calm Calm - N/A   Partly Cloudy
8:55 PM 39.2 °F - 33.8 °F 81% 29.78 in 10.0 mi Calm Calm - N/A   Partly Cloudy
9:15 PM 39.2 °F - 35.6 °F 87% 29.78 in 10.0 mi Calm Calm - N/A   Partly Cloudy
9:35 PM 37.4 °F - 33.8 °F 87% 29.78 in 10.0 mi Calm Calm - N/A   Scattered Clouds
9:55 PM 37.4 °F - 35.6 °F 93% 29.77 in 10.0 mi Calm Calm - N/A   Partly Cloudy
10:15 PM 37.4 °F - 35.6 °F 93% 29.77 in 10.0 mi Calm Calm - N/A   Mostly Cloudy
10:35 PM 37.4 °F - 35.6 °F 93% 29.77 in 10.0 mi Calm Calm - N/A   Scattered Clouds
10:55 PM 37.4 °F - 35.6 °F 93% 29.77 in 10.0 mi Calm Calm - N/A   Clear
11:15 PM 39.2 °F - 35.6 °F 87% 29.76 in 10.0 mi Calm Calm - N/A   Partly Cloudy
11:35 PM 39.2 °F - 35.6 °F 87% 29.76 in 10.0 mi Calm Calm - N/A   Mostly Cloudy
11:55 PM 37.4 °F - 35.6 °F 93% 29.75 in 10.0 mi Calm Calm - N/A   Scattered Clouds